STARLINK-32439, 61665

Orbit data source: Space-Track

STARLINK-32439, 61665 is a payload satellite owned by SpaceX/Seattle (US) in LEO that was launched on Sat, 26 Oct 2024 UTC via an FALCON 9 launch vehicle from the Air Force Eastern Test Range (AFETR). Payload-class satellites include a variety of spacecraft equipped with specific instruments for various scientific and technological missions. These include communications satellites like Starlink; space stations such as the ISS; scientific satellites like the Hubble; Earth observation satellites from companies like Planet Labs, Umbra, and HawkEye 360; GPS; miniature CubeSats for education and research; and military/defense satellites.

Loading next visibility...
Identifier
61665, 2024-193E
Orbit
LEO
Country
Flag of USUS
Related business
Manufacturer
SpaceX/Seattle
Mission
Operational Commercial Communications
Bus & Motor
STARLINK V2M, Unknown motor
Mass
730 kg wet, ~700 kg dry
Launch date (UTC)
2024-10-26 (2 years ago)
Launch vehicle
FALCON 9
Launch site
Air Force Eastern Test Range (AFETR)
Object type
Payload
Rocket body
Debris
Shape & HBR
Box + 2 Pan, 17.7 m
Radar Cross Section
33.884 m², Large (>1 m²)

Expand to show TLE details & history
Last TLE update: 10 hours ago

TLE from 10 hours ago
0 STARLINK-32439
1 61665U 24193E   26125.45888800  .00000721  00000-0  36490-4 0  9996
2 61665  53.1604 187.6418 0001285  81.4302 278.6844 15.30192279 85218
Epoch: 2026-05-05T11:00Z
TLE epoch observation values (Epoch: 2026-05-05T11:00:47.923Z)
Latitude
-0.00003°
Longitude
159.10866°
Altitude
476.005 km
Speed
7.629 km/s
True Right ascension
12h 30m 34s
True Declination
0° 00' 00"
Sunlit
Object was in full shadow at epoch
Visualization orbit readout
Latitude
Unknown
Longitude
Unknown
Altitude
Unknown
Speed
Unknown
Apparent Right ascension
Unknown
Apparent Declination
Unknown
Sunlit
N/A
Visualization observer readout
Local Sidereal Time
05:23:35
Azimuth
Unknown
Elevation
Unknown
Doppler factor
Unknown
Orbital elements
Apogee altitude
476.375 km
Perigee altitude
474.614 km
Semi-major axis
6,853.631 km
Eccentricity
0.00013
Inclination
53.1604°
RAAN
187.6418°
Arg. of periapsis
81.4302°
True anomaly
278.66984°
Mean anomaly
278.6844°
Eccentric anomaly
278.67712°
Mean motion
3.82527 °/min
Orbital period
94.11 mins
BSTAR
0.00003649
Loading maneuver chart data...
Computing Atmospheric mass density...
Loading historical data...
Loading historical data...
Loading historical data...
Loading historical data...
Loading historical data...
Loading historical data...
Loading historical data...

Documentation

Showing up to 5 results
|